Tracking 27112 objects as of 27-Mar-2023
HD Live streaming from Space Station
objects crossing your sky now

STARLINK-1851

Track STARLINK-1851 now!
10-day predictions
STARLINK-1851 is classified as:


NORAD ID: 46783
Int'l Code: 2020-074AW
Perigee: 553.3 km
Apogee: 555.4 km
Inclination: 53.1 °
Period: 95.6 minutes
Semi major axis: 6925 km
RCS: Unknown
Launch date: October 24, 2020
Source: United States (US)
Launch site: AIR FORCE EASTERN TEST RANGE (AFETR)
Your satellite tracking list
Your tracking list is empty




NASA's NSSDC Master Catalog

Two Line Element Set (TLE):
1 46783U 20074AW  23085.76926011  .00008093  00000-0  56163-3 0  9995
2 46783  53.0534 115.0763 0001547 145.2048 214.9042 15.06397820134195
Source of the keplerian elements: AFSPC